Regional Weather Roundup
Issued by NWS

Home | Current Version | Previous Version | Text Only | Print | Product List | Glossary Off
Versions: 1 2 3 4 5 6 7 8 9 10 11 12 13 14 15 16 17 18 19 20 21 22 23 24 25 26 27 28 29 30 31 32 33 34 35 36 37 38 39 40 41 42 43 44 45 46 47 48 49 50

000
ASUS43 KDTX 290101
RWRMI
MICHIGAN HOURLY REGIONAL WEATHER ROUNDUP
NATIONAL WEATHER SERVICE DETROIT/PONTIAC MI
900 PM EDT THU AUG 28 2014

NOTE: "FAIR" INDICATES FEW OR NO CLOUDS BELOW 12,000 FEET WITH NO
SIGNIFICANT WEATHER AND/OR OBSTRUCTION TO VISIBILITY.

MIZ047>049-052>055-059>063-066>070-074>076-081>083-290200-
SOUTHEAST LOWER MICHIGAN

CITY           SKY/WX    TMP DP  RH WIND       PRES   REMARKS
ADRIAN         MOCLDY    65  58  78 SE7       30.12R
ALMA           MOCLDY    59  56  88 CALM      30.13S
ANN ARBOR      MOCLDY    63  55  75 E3        30.12R
BAD AXE        MOCLDY    57  52  83 CALM      30.16R
CARO           PTCLDY    60  53  79 E3        30.15R
DETROIT CITY   PTCLDY    68  53  58 E5        30.13R
DETROIT        MOCLDY    66  52  60 E5        30.14R
FLINT          PTCLDY    65  54  67 CALM      30.13R
GROSSE ILE     PTCLDY    66  55  68 CALM      30.13R
HILLSDALE      PTCLDY    66  57  72 CALM      30.12R
HOWELL         MOCLDY    59  53  79 CALM      30.13R

CITY           SKY/WX    TMP DP  RH WIND       PRES   REMARKS
JACKSON        PTCLDY    65  53  65 NE3       30.12R
LAMBERTVILLE   MOCLDY    64  55  72 CALM      30.13S
LANSING        MOCLDY    63  51  65 NE6       30.13R
LAPEER         FAIR      61  54  76 CALM      30.15R
MASON          PTCLDY    62  56  80 CALM      30.13R
MONROE         MOCLDY    63  55  77 CALM      30.12R
MT. CLEMENS    PTCLDY    65  49  57 NE9       30.13R
PONTIAC        MOCLDY    62  53  72 E3        30.13R
PORT HOPE        N/A     57  51  80 CALM      30.14R
PORT HURON     PTCLDY    52  50  93 CALM      30.15R
TRI CITIES     PTCLDY    63  54  72 SE5       30.14R
TROY           PTCLDY    68  52  55 CALM      30.15R
SAGINAW HB     PTCLDY    59  57  94 CALM      30.14R
$$
MIZ043>046-050>051-056>058-064>065-071>073-077>080-290200-
SOUTHWEST LOWER MICHIGAN

CITY           SKY/WX    TMP DP  RH WIND       PRES   REMARKS
BATTLE CREEK   PTCLDY    69  55  60 NE7       30.11R
BENTON HARBOR  PTCLDY    69  60  73 E3        30.07R
BIG RAPIDS     CLOUDY    62  59  87 CALM      30.11S
COLDWATER      PTCLDY    69  59  71 E3        30.10R
FREMONT        FAIR      65  55  70 CALM      30.10R
HOLLAND        MOCLDY    68  54  60 E5        30.10S
GRAND RAPIDS   MOCLDY    66  58  75 E6        30.11S
IONIA          FAIR      62  52  70 NE5       30.11S
KALAMAZOO      PTCLDY    69  56  62 VRB3      30.09S
LUDINGTON      CLOUDY    62  56  82 CALM      30.10S
MARSHALL       PTCLDY    64  55  74 CALM      30.11R
MOUNT PLEASANT MOCLDY    60  53  76 CALM      30.12R
MUSKEGON       MOCLDY    68  54  60 SE3       30.10R
SOUTH HAVEN    PTCLDY    69  60  73 E6        30.07S
$$
MIZ016>042-290200-
NORTHERN LOWER MICHIGAN

CITY           SKY/WX    TMP DP  RH WIND       PRES   REMARKS
ALPENA         PTCLDY    55  49  80 CALM      30.14R
BEAVER ISLAND  MOCLDY    56  53  92 CALM      30.12S
BELLAIRE       MOCLDY    57  54  90 CALM      30.11S
CADILLAC       MOCLDY    60  53  79 CALM      30.11S
CHARLEVOIX     MOCLDY    59  52  78 CALM      30.15S
FRANKFORT      MOCLDY    62  53  72 CALM      30.10S
GAYLORD        MOCLDY    60  48  64 CALM      30.13S
GRAYLING       MOCLDY    56  54  90 CALM      30.14R
HARBOR SPRINGS MOCLDY    58  50  73 N5        30.12S
HOUGHTON LAKE  MOCLDY    57  53  86 CALM      30.13S
MANISTEE       CLOUDY    63  54  72 CALM      30.10F
OSCODA         PTCLDY    60  50  68 CALM      30.14R
PELLSTON       MOCLDY    55  51  86 CALM      30.13R
TRAVERSE CITY  MOCLDY    63  53  70 CALM      30.10S
$$
MIZ007>008-015-290200-
EASTERN UPPER MICHIGAN

CITY           SKY/WX    TMP DP  RH WIND       PRES   REMARKS
KINROSS        CLEAR     61  48  63 S3        30.12S
MACKINAC ISLAN PTCLDY    55  50  82 CALM      30.12R
NEWBERRY       PTCLDY    55  48  76 S3        30.11S
S. S. MARIE    CLEAR     58  48  69 CALM      30.11S
$$
MIZ004>006-011>014-085-290200-
CENTRAL UPPER MICHIGAN

CITY           SKY/WX    TMP DP  RH WIND       PRES   REMARKS
MANISTIQUE     MOCLDY    58  53  83 S3        30.10S
ESCANABA       MOCLDY    63  52  67 SE7       30.09F
MENOMINEE      CLOUDY    64  54  68 S7        30.08S
SAWYER-GWINN   CLEAR     59  52  77 S10       30.09S
$$
MIZ001>003-009>011-084-290200-
WESTERN UPPER MICHIGAN

CITY           SKY/WX    TMP DP  RH WIND       PRES   REMARKS
IRON MOUNTAIN  CLOUDY    63  57  81 SE8       30.07S
HOUGHTON       CLOUDY    58  51  78 E8        30.05S
COPPER HARBOR    N/A     59  51  75 SW7       30.05S
$$

ABBREVIATIONS USED IN REMARKS
   TC - TEMPERATURE IN CELSIUS
  WCI - WIND CHILL INDEX
   HX - HEAT INDEX
  VSB - VISIBILITY



USA.gov is the U.S. government's official web portal to all federal, state and local government web resources and services.